DW7854 Weather Reports


time (UTC)temp
C
wind
direction
speed
KPH
gust
KPH
rain 1hr
cm
rain 24hr
cm
rain mn
cm
humidity
%
barometer
mb
20260502220228 24 323 8.0 17.7 0.00 0.00 0.00 35 1016.7
20260502215328 24 311 8.0 19.3 0.00 0.00 0.00 33 1016.7
20260502214608 24 11 4.8 11.3 0.00 0.00 0.00 34 1017.0
20260502214428 24 301 4.8 12.9 0.00 0.00 0.00 34 1016.7
20260502213528 24 320 6.4 12.9 0.00 0.00 0.00 35 1016.8
20260502213113 24 331 8.0 16.1 0.00 0.00 0.00 33 1017.2
20260502211728 23 321 4.8 12.9 0.00 0.00 0.00 37 1016.9
20260502211605 23 314 1.6 12.9 0.00 0.00 0.00 36 1017.3
20260502210828 23 355 6.4 12.9 0.00 0.00 0.00 35 1017.0
20260502210020 23 56 3.2 16.1 0.00 0.00 0.00 36 1017.5
20260502205928 23 325 3.2 16.1 0.00 0.00 0.00 33 1017.1
20260502205028 23 326 4.8 12.9 0.00 0.00 0.00 36 1017.2
20260502204618 23 316 8.0 12.9 0.00 0.00 0.00 35 1017.7
20260502204128 23 316 4.8 11.3 0.00 0.00 0.00 36 1017.4
20260502203228 23 314 6.4 12.9 0.00 0.00 0.00 37 1017.6
20260502203014 23 349 4.8 12.9 0.00 0.00 0.00 37 1018.0
20260502202328 23 312 6.4 20.9 0.00 0.00 0.00 35 1017.7
20260502201604 23 244 3.2 14.5 0.00 0.00 0.00 36 1018.1
20260502201428 23 319 6.4 12.9 0.00 0.00 0.00 36 1017.8
20260502200528 23 326 4.8 16.1 0.00 0.00 0.00 35 1017.9
20260502200106 23 270 3.2 17.7 0.00 0.00 0.00 36 1018.4
20260502195628 23 318 4.8 14.5 0.00 0.00 0.00 35 1018.1
20260502194728 23 334 4.8 14.5 0.00 0.00 0.00 38 1018.1
20260502194603 22 322 6.4 14.5 0.00 0.00 0.00 38 1018.6
20260502193828 23 279 3.2 12.9 0.00 0.00 0.00 36 1018.3
20260502193003 23 200 4.8 11.3 0.00 0.00 0.00 39 1018.7
20260502192028 23 263 3.2 8.0 0.00 0.00 0.00 38 1018.4
20260502191510 23 224 1.6 9.7 0.00 0.00 0.00 41 1018.8
20260502191128 23 349 6.4 17.7 0.00 0.00 0.00 37 1018.4
20260502190227 23 312 4.8 12.9 0.00 0.00 0.00 38 1018.6
20260502190107 22 298 6.4 12.9 0.00 0.00 0.00 36 1018.9
20260502185328 23 333 4.8 9.7 0.00 0.00 0.00 37 1018.6
20260502184513 23 18 4.8 9.7 0.00 0.00 0.00 35 1019.2
20260502184428 23 302 4.8 14.5 0.00 0.00 0.00 35 1018.7
20260502183527 23 268 4.8 14.5 0.00 0.00 0.00 43 1018.8
20260502183009 22 268 3.2 14.5 0.00 0.00 0.00 43 1019.3
20260502182628 22 320 4.8 14.5 0.00 0.00 0.00 37 1018.9
20260502181727 22 271 3.2 9.7 0.00 0.00 0.00 38 1019.0
20260502181609 22 219 3.2 9.7 0.00 0.00 0.00 36 1019.4
20260502180827 22 318 4.8 11.3 0.00 0.00 0.00 39 1019.1
20260502170110 21 277 6.4 14.5 0.00 0.00 0.00 40 1020.1
20260502163827 21 45 3.2 11.3 0.00 0.00 0.00 41 1019.6
20260502163103 21 93 0.0 14.5 0.00 0.00 0.00 39 1020.0
20260502162927 21 330 6.4 12.9 0.00 0.00 0.00 38 1019.6
20260502162027 21 317 4.8 12.9 0.00 0.00 0.00 41 1019.7
20260502161503 21 333 6.4 14.5 0.00 0.00 0.00 42 1020.1
20260502160227 21 343 3.2 9.7 0.00 0.00 0.00 44 1019.7
20260502160105 20 5 1.6 9.7 0.00 0.00 0.00 47 1020.1
20260502151611 19 22 3.2 8.0 0.00 0.00 0.00 60 1019.9
20260502150106 18 47 6.4 12.9 0.00 0.00 0.00 62 1019.9
20260502140105 15 128 0.0 3.2 0.00 0.00 0.00 97 1019.8
20260502130227 11 60 0.0 1.6 0.00 0.00 0.00 97 1019.0
20260502123527 10 76 0.0 1.6 0.00 0.00 0.00 96 1018.5
20260502123003 9 76 0.0 0.0 0.00 0.00 0.00 96 1018.8
20260502122627 9 0 0.0 0.0 0.00 0.00 0.00 96 1018.3
20260502121727 9 0 0.0 0.0 0.00 0.00 0.00 96 1018.2
20260502121530 8 76 0.0 0.0 0.00 0.00 0.00 95 1018.6
20260502120827 9 19 0.0 1.6 0.00 0.00 0.00 95 1018.0
20260502120106 8 10 0.0 1.6 0.00 0.00 0.00 95 1018.4
20260502115927 9 20 0.0 1.6 0.00 0.00 0.00 95 1017.9
20260502114605 8 329 0.0 0.0 0.00 0.00 0.00 95 1018.2
20260502114127 9 0 0.0 0.0 0.00 0.00 0.00 95 1017.7
20260502113227 9 0 0.0 0.0 0.00 0.00 0.00 95 1017.7
20260502113004 9 329 0.0 0.0 0.00 0.00 0.00 95 1018.2
20260502112327 9 328 0.0 1.6 0.00 0.00 0.00 95 1017.7
20260502111625 9 329 0.0 3.2 0.00 0.00 0.00 95 1018.0
20260502111427 9 329 1.6 3.2 0.00 0.00 0.00 95 1017.5
20260502110008 9 329 0.0 0.0 0.00 0.00 0.00 95 1017.7
20260502105627 10 0 0.0 0.0 0.00 0.00 0.00 95 1017.3
20260502104727 10 328 0.0 1.6 0.00 0.00 0.00 94 1017.2
20260502104505 9 329 0.0 1.6 0.00 0.00 0.00 94 1017.7
20260502103827 10 0 0.0 0.0 0.00 0.00 0.00 95 1017.2
20260502103005 10 329 0.0 0.0 0.00 0.00 0.00 95 1017.6
20260502102927 10 0 0.0 0.0 0.00 0.00 0.00 95 1017.2
20260502101512 10 329 0.0 1.6 0.00 0.00 0.00 95 1017.4
20260502101127 10 328 0.0 1.6 0.00 0.00 0.00 95 1017.0
20260502100227 10 0 0.0 0.0 0.00 0.00 0.00 94 1017.0
20260502090105 10 329 0.0 0.0 0.00 0.00 0.00 94 1016.9
20260502080103 11 329 0.0 1.6 0.00 0.00 0.00 93 1016.7
20260502071127 12 328 0.0 1.6 0.00 0.00 0.00 93 1016.7
20260502070227 12 328 0.0 1.6 0.00 0.00 0.00 92 1016.7
20260502070019 12 329 0.0 1.6 0.00 0.00 0.00 92 1017.1
20260502065327 12 0 0.0 0.0 0.00 0.00 0.00 92 1016.8
20260502064605 12 329 0.0 0.0 0.00 0.00 0.00 93 1017.2
20260502064427 12 0 0.0 0.0 0.00 0.00 0.00 93 1016.8
20260502063527 12 0 0.0 0.0 0.00 0.00 0.00 93 1016.9
20260502063006 12 329 0.0 0.0 0.00 0.00 0.00 93 1017.3
20260502061727 12 0 0.0 0.0 0.00 0.00 0.00 92 1016.8
20260502061603 12 329 0.0 0.0 0.00 0.00 0.00 92 1017.3
20260502060827 13 0 0.0 0.0 0.00 0.00 0.00 92 1016.8
20260502060004 12 329 0.0 0.0 0.00 0.00 0.00 92 1017.3
20260502055027 13 328 0.0 1.6 0.00 0.00 0.00 92 1016.9
20260502054503 12 329 0.0 0.0 0.00 0.00 0.00 92 1017.3
20260502054127 13 0 0.0 0.0 0.00 0.00 0.00 92 1016.9
20260502053227 13 0 0.0 0.0 0.00 0.00 0.00 91 1016.9
20260502053003 13 329 0.0 0.0 0.00 0.00 0.00 91 1017.4
20260502052327 13 0 0.0 0.0 0.00 0.00 0.00 91 1016.9
20260502051607 13 329 0.0 0.0 0.00 0.00 0.00 91 1017.3
20260502051427 13 0 0.0 0.0 0.00 0.00 0.00 91 1016.9
20260502050527 13 328 0.0 1.6 0.00 0.00 0.00 91 1016.7
20260502050008 13 329 0.0 0.0 0.00 0.03 0.00 91 1017.1
20260502045627 13 0 0.0 0.0 0.00 0.00 0.00 90 1016.8
20260502044727 13 0 0.0 0.0 0.00 0.00 0.00 90 1016.7
20260502044604 13 329 0.0 0.0 0.00 0.03 0.00 90 1017.1
20260502043827 13 0 0.0 0.0 0.00 0.00 0.00 90 1016.4
20260502043004 13 329 0.0 0.0 0.00 0.03 0.00 89 1016.8
20260502042926 13 0 0.0 0.0 0.00 0.03 0.00 89 1016.4
20260502042026 13 329 0.0 1.6 0.00 0.03 0.00 88 1016.4
20260502041606 13 329 0.0 1.6 0.00 0.03 0.00 88 1016.9
20260502041126 14 328 0.0 1.6 0.00 0.03 0.00 88 1016.5
20260502040227 14 0 0.0 0.0 0.00 0.03 0.00 88 1016.5
20260502040008 14 329 0.0 0.0 0.00 0.05 0.00 88 1016.9
20260502035327 14 0 0.0 0.0 0.00 0.03 0.00 87 1016.5
20260502034504 14 329 0.0 0.0 0.00 0.05 0.00 87 1017.0
20260502034426 14 0 0.0 0.0 0.00 0.03 0.00 87 1016.6
20260502033526 15 0 0.0 0.0 0.00 0.05 0.00 87 1016.5
20260502033102 14 329 0.0 0.0 0.00 0.05 0.00 87 1017.0
20260502032627 15 0 0.0 0.0 0.00 0.05 0.00 88 1016.7
20260502031726 15 0 0.0 0.0 0.00 0.05 0.00 88 1016.6
20260502031504 14 329 0.0 1.6 0.00 0.05 0.00 88 1017.1
20260502030008 15 329 0.0 1.6 0.00 0.05 0.00 87 1016.9
20260502025926 15 328 0.0 1.6 0.00 0.05 0.00 87 1016.5
20260502025026 15 0 0.0 0.0 0.00 0.05 0.00 87 1016.3
20260502024507 15 329 0.0 0.0 0.00 0.05 0.00 86 1016.6
20260502024126 15 0 0.0 0.0 0.00 0.05 0.00 85 1016.1
20260502023226 15 0 0.0 0.0 0.00 0.05 0.00 85 1015.9
20260502023104 15 329 0.0 0.0 0.00 0.05 0.00 85 1016.3
20260502021503 15 329 0.0 0.0 0.00 0.05 0.00 84 1016.0
20260502021426 15 0 0.0 0.0 0.00 0.05 0.00 84 1015.6
20260502020526 15 0 0.0 0.0 0.00 0.05 0.00 82 1015.5
20260502015626 15 0 0.0 0.0 0.00 0.05 0.00 83 1015.4
20260502014726 16 0 0.0 0.0 0.00 0.05 0.00 82 1015.3
20260502014602 15 329 0.0 0.0 0.00 0.05 0.00 82 1015.6
20260502013826 16 0 0.0 0.0 0.00 0.05 0.00 82 1015.2
20260502013105 16 329 0.0 0.0 0.00 0.05 0.00 81 1015.4
20260502012926 16 0 0.0 0.0 0.00 0.05 0.00 81 1015.0
20260502012026 16 328 0.0 1.6 0.00 0.05 0.00 80 1014.8
20260502011508 16 329 0.0 0.0 0.00 0.05 0.00 79 1015.2
20260502011126 16 0 0.0 0.0 0.00 0.05 0.00 79 1014.7
20260502010226 16 0 0.0 0.0 0.00 0.05 0.00 78 1014.7
20260502010104 16 329 0.0 0.0 0.00 0.05 0.00 78 1015.0
20260502005326 17 0 0.0 0.0 0.00 0.05 0.00 78 1014.7
20260502004515 17 329 0.0 1.6 0.00 0.05 0.00 77 1015.0
20260502004426 17 328 0.0 1.6 0.00 0.05 0.00 77 1014.6
20260502003526 17 0 0.0 0.0 0.00 0.05 0.00 75 1014.4
20260502003009 17 329 0.0 1.6 0.00 0.05 0.00 75 1014.8
20260502002626 17 291 0.0 1.6 0.00 0.05 0.00 74 1014.4
20260502001726 18 0 0.0 0.0 0.00 0.05 0.00 72 1014.3
20260502001502 18 238 0.0 1.6 0.00 0.05 0.00 72 1014.7
20260502000826 18 0 0.0 0.0 0.00 0.05 0.00 72 1014.4
20260502000003 18 272 0.0 0.0 0.00 0.05 0.00 68 1014.8
20260501235926 18 0 0.0 0.0 0.00 0.05 0.00 68 1014.4
20260501235026 18 0 0.0 0.0 0.00 0.05 0.00 67 1014.2
20260501234504 18 267 0.0 0.0 0.00 0.05 0.00 66 1014.5
20260501234126 18 0 0.0 0.0 0.00 0.05 0.00 65 1013.9
20260501233226 18 113 0.0 1.6 0.00 0.05 0.00 63 1013.9
20260501233006 18 113 0.0 3.2 0.00 0.05 0.00 63 1014.2
20260501232326 19 136 1.6 6.4 0.00 0.05 0.00 61 1013.8
20260501231507 19 125 3.2 6.4 0.00 0.05 0.00 59 1014.3
20260501231426 19 136 1.6 8.0 0.00 0.05 0.00 59 1013.9
20260501230526 19 109 3.2 8.0 0.00 0.05 0.00 58 1013.5
20260501230004 19 123 3.2 8.0 0.00 0.05 0.00 57 1013.7
20260501225626 20 84 3.2 6.4 0.00 0.05 0.00 59 1013.2
20260501224726 20 71 3.2 12.9 0.00 0.05 0.00 56 1012.6
20260501224603 19 155 3.2 12.9 0.00 0.05 0.00 57 1012.9
20260501223826 20 91 1.6 8.0 0.00 0.05 0.00 61 1012.5
20260501223007 19 100 0.0 4.8 0.00 0.05 0.00 64 1013.2
20260501222926 19 93 1.6 4.8 0.00 0.05 0.00 63 1012.8
20260501222026 19 90 0.0 4.8 0.00 0.05 0.00 61 1012.8
20260501221507 19 75 0.0 4.8 0.00 0.05 0.00 60 1013.3
20260501221126 19 87 1.6 3.2 0.00 0.05 0.00 59 1012.9